Meteo pe oră la Bolshie Stariki

Astăzi, 6 Mai, Joi

Timp Temperatura Precipitaţii Vânt Presiune Umiditate
00:00 +7°C° 1.5 mm 2 m/s 740 mmHg 97%
01:00 +8°C° 1.5 mm 1 m/s 739 mmHg 98%
02:00 +8°C° 0 mm 1 m/s 739 mmHg 98%
03:00 +8°C° 0.8 mm 1 m/s 738 mmHg 98%
04:00 +8°C° 0.8 mm 1 m/s 737 mmHg 98%
05:00 +8°C° 0.8 mm 1 m/s 737 mmHg 99%
06:00 +7°C° 1.5 mm 2 m/s 736 mmHg 98%
07:00 +5°C° 1.5 mm 3 m/s 736 mmHg 97%
08:00 +5°C° 0 mm 4 m/s 735 mmHg 96%
09:00 +5°C° 1.9 mm 4 m/s 736 mmHg 95%
10:00 +5°C° 1.9 mm 3 m/s 736 mmHg 93%
11:00 +7°C° 1.9 mm 3 m/s 737 mmHg 92%
12:00 +6°C° 0.3 mm 4 m/s 737 mmHg 90%
13:00 +6°C° 0.3 mm 4 m/s 737 mmHg 88%
14:00 +7°C° 0.3 mm 5 m/s 738 mmHg 86%
15:00 +7°C° 0.3 mm 5 m/s 738 mmHg 87%
16:00 +5°C° 0.3 mm 6 m/s 738 mmHg 87%
17:00 +5°C° 0.3 mm 6 m/s 739 mmHg 88%
18:00 +4°C° 0.1 mm 6 m/s 739 mmHg 89%
19:00 +5°C° 0.1 mm 5 m/s 740 mmHg 89%
20:00 +3°C° 0.1 mm 5 m/s 740 mmHg 90%
21:00 +3°C° 0 mm 5 m/s 741 mmHg 89%
22:00 +3°C° 0 mm 5 m/s 741 mmHg 89%
23:00 +2°C° 0 mm 5 m/s 741 mmHg 88%

Mâine, 7 Mai, Vineri

Timp Temperatura Precipitaţii Vânt Presiune Umiditate
00:00 +2°C° 0 mm 5 m/s 742 mmHg 88%
01:00 +2°C° 0 mm 5 m/s 742 mmHg 87%
02:00 +2°C° 0 mm 5 m/s 742 mmHg 86%
03:00 +2°C° 0 mm 5 m/s 742 mmHg 86%
04:00 +2°C° 0 mm 5 m/s 742 mmHg 87%
05:00 +1°C° 0 mm 5 m/s 742 mmHg 88%
06:00 +3°C° 0 mm 5 m/s 743 mmHg 82%
07:00 +5°C° 0 mm 5 m/s 743 mmHg 75%
08:00 +6°C° 0 mm 5 m/s 743 mmHg 69%
09:00 +7°C° 0 mm 5 m/s 743 mmHg 66%
10:00 +7°C° 0 mm 5 m/s 744 mmHg 63%
11:00 +8°C° 0 mm 4 m/s 744 mmHg 60%
12:00 +10°C° 0 mm 4 m/s 744 mmHg 57%
13:00 +10°C° 0 mm 4 m/s 744 mmHg 54%
14:00 +11°C° 0 mm 3 m/s 744 mmHg 51%
15:00 +11°C° 0 mm 3 m/s 744 mmHg 52%
16:00 +12°C° 0 mm 2 m/s 743 mmHg 54%
17:00 +12°C° 0 mm 1 m/s 743 mmHg 56%
18:00 +11°C° 0 mm 1 m/s 743 mmHg 63%
19:00 +10°C° 0 mm 1 m/s 743 mmHg 70%
20:00 +7°C° 0 mm 2 m/s 743 mmHg 78%
21:00 +8°C° 0.8 mm 1 m/s 743 mmHg 84%
22:00 +7°C° 0.8 mm 1 m/s 742 mmHg 90%
23:00 +7°C° 0.8 mm 1 m/s 742 mmHg 96%

Poimâine, 8 Mai, Sâmbătă

Timp Temperatura Precipitaţii Vânt Presiune Umiditate
00:00 +7°C° 1.1 mm 1 m/s 741 mmHg 96%
01:00 +7°C° 1.1 mm 1 m/s 741 mmHg 97%
02:00 +5°C° 1.1 mm 2 m/s 741 mmHg 97%
03:00 +5°C° 0.3 mm 2 m/s 741 mmHg 97%
04:00 +5°C° 0.3 mm 2 m/s 741 mmHg 97%
05:00 +5°C° 0.3 mm 2 m/s 741 mmHg 97%
06:00 +5°C° 0.3 mm 2 m/s 741 mmHg 97%
07:00 +5°C° 0.3 mm 2 m/s 741 mmHg 96%
08:00 +4°C° 0.3 mm 3 m/s 741 mmHg 95%
09:00 +4°C° 0.3 mm 3 m/s 741 mmHg 95%
10:00 +4°C° 0.3 mm 3 m/s 742 mmHg 95%
11:00 +4°C° 0.3 mm 3 m/s 742 mmHg 95%
12:00 +4°C° 0.3 mm 3 m/s 742 mmHg 96%
13:00 +4°C° 0.3 mm 4 m/s 743 mmHg 96%
14:00 +4°C° 0.3 mm 4 m/s 743 mmHg 96%
15:00 +4°C° 0.4 mm 4 m/s 744 mmHg 96%
16:00 +4°C° 0.4 mm 4 m/s 744 mmHg 96%
17:00 +4°C° 0.4 mm 4 m/s 744 mmHg 95%
18:00 +3°C° 0.1 mm 4 m/s 745 mmHg 94%
19:00 +3°C° 0.1 mm 4 m/s 745 mmHg 92%
20:00 +3°C° 0.1 mm 4 m/s 746 mmHg 91%
21:00 +1°C° 0 mm 4 m/s 746 mmHg 91%
22:00 +1°C° 0 mm 4 m/s 747 mmHg 91%
23:00 0°C° 0 mm 4 m/s 747 mmHg 91%

9 Mai, Duminică

Timp Temperatura Precipitaţii Vânt Presiune Umiditate
00:00 0°C° 0 mm 4 m/s 748 mmHg 91%
01:00 0°C° 0 mm 4 m/s 749 mmHg 91%
02:00 -1°C° 0 mm 4 m/s 749 mmHg 91%
03:00 -1°C° 0 mm 4 m/s 750 mmHg 90%
04:00 -1°C° 0 mm 4 m/s 751 mmHg 90%
05:00 -2°C° 0 mm 4 m/s 751 mmHg 90%
06:00 0°C° 0 mm 4 m/s 752 mmHg 82%
07:00 +3°C° 0 mm 4 m/s 753 mmHg 74%
08:00 +5°C° 0 mm 4 m/s 753 mmHg 66%
09:00 +6°C° 0 mm 4 m/s 754 mmHg 59%
10:00 +8°C° 0 mm 4 m/s 754 mmHg 52%
11:00 +10°C° 0 mm 4 m/s 754 mmHg 45%
12:00 +11°C° 0 mm 4 m/s 755 mmHg 43%
13:00 +11°C° 0 mm 4 m/s 755 mmHg 41%
14:00 +12°C° 0 mm 4 m/s 755 mmHg 39%
15:00 +12°C° 0 mm 3 m/s 755 mmHg 43%
16:00 +12°C° 0 mm 3 m/s 755 mmHg 47%
17:00 +13°C° 0 mm 2 m/s 755 mmHg 51%
18:00 +10°C° 0 mm 2 m/s 756 mmHg 59%
19:00 +8°C° 0 mm 2 m/s 756 mmHg 67%
20:00 +7°C° 0 mm 2 m/s 756 mmHg 74%
21:00 +6°C° 0 mm 2 m/s 756 mmHg 76%
22:00 +6°C° 0 mm 2 m/s 757 mmHg 77%
23:00 +4°C° 0 mm 3 m/s 757 mmHg 78%

10 Mai, Luni

Timp Temperatura Precipitaţii Vânt Presiune Umiditate
00:00 +4°C° 0 mm 3 m/s 757 mmHg 78%
01:00 +4°C° 0 mm 3 m/s 757 mmHg 79%
02:00 +5°C° 0 mm 3 m/s 758 mmHg 79%
03:00 +5°C° 0 mm 3 m/s 758 mmHg 78%
04:00 +7°C° 0 mm 3 m/s 758 mmHg 77%
05:00 +6°C° 0 mm 4 m/s 758 mmHg 76%
06:00 +8°C° 0 mm 4 m/s 758 mmHg 72%
07:00 +10°C° 0 mm 4 m/s 758 mmHg 69%
08:00 +11°C° 0 mm 4 m/s 759 mmHg 65%
09:00 +13°C° 0 mm 5 m/s 759 mmHg 60%
10:00 +15°C° 0 mm 5 m/s 759 mmHg 55%
11:00 +16°C° 0 mm 5 m/s 759 mmHg 50%
12:00 +17°C° 0 mm 5 m/s 759 mmHg 50%
13:00 +19°C° 0 mm 5 m/s 759 mmHg 49%
14:00 +19°C° 0 mm 5 m/s 759 mmHg 48%
15:00 +19°C° 0 mm 5 m/s 759 mmHg 52%
16:00 +19°C° 0 mm 5 m/s 759 mmHg 55%
17:00 +19°C° 0 mm 4 m/s 759 mmHg 58%
18:00 +17°C° 0 mm 4 m/s 759 mmHg 64%
19:00 +14°C° 0 mm 4 m/s 759 mmHg 70%
20:00 +12°C° 0 mm 3 m/s 759 mmHg 76%
21:00 +11°C° 0 mm 3 m/s 759 mmHg 79%
22:00 +10°C° 0 mm 3 m/s 759 mmHg 82%
23:00 +9°C° 0 mm 3 m/s 760 mmHg 86%

11 Mai, Marţi

Timp Temperatura Precipitaţii Vânt Presiune Umiditate
00:00 +9°C° 0 mm 3 m/s 760 mmHg 87%
01:00 +8°C° 0 mm 3 m/s 760 mmHg 88%
02:00 +8°C° 0 mm 3 m/s 760 mmHg 90%
03:00 +8°C° 0 mm 3 m/s 760 mmHg 88%
04:00 +8°C° 0 mm 3 m/s 760 mmHg 87%
05:00 +8°C° 0 mm 3 m/s 760 mmHg 85%
06:00 +10°C° 0 mm 3 m/s 760 mmHg 77%
07:00 +12°C° 0 mm 4 m/s 760 mmHg 68%
08:00 +13°C° 0 mm 4 m/s 760 mmHg 60%
09:00 +15°C° 0 mm 4 m/s 760 mmHg 55%
10:00 +17°C° 0 mm 4 m/s 761 mmHg 50%
11:00 +19°C° 0 mm 4 m/s 761 mmHg 45%
12:00 +19°C° 0 mm 4 m/s 760 mmHg 44%
13:00 +20°C° 0 mm 4 m/s 760 mmHg 42%
14:00 +20°C° 0 mm 4 m/s 760 mmHg 40%
15:00 +20°C° 0 mm 4 m/s 760 mmHg 44%
16:00 +20°C° 0 mm 4 m/s 760 mmHg 48%
17:00 +19°C° 0 mm 3 m/s 760 mmHg 52%
18:00 +17°C° 0 mm 3 m/s 760 mmHg 61%
19:00 +14°C° 0 mm 3 m/s 759 mmHg 69%
20:00 +13°C° 0 mm 2 m/s 759 mmHg 77%
21:00 +12°C° 0 mm 2 m/s 759 mmHg 79%
22:00 +10°C° 0 mm 2 m/s 760 mmHg 81%
23:00 +10°C° 0 mm 2 m/s 760 mmHg 83%
Arată mai mult

Formular de consimțământ

Meteoprog și furnizorii noștri de servicii pot stoca și accesa date personale, precum cookies, identificatori de dispozitiv sau alte tehnologii similare pe dispozitivul dumneavoastră și procesa astfel de date pentru a personaliza conținutul și reclamele, dar și pentru a oferi caracteristici de social media și pentru a analiza traficul.

  • Stocarea și/sau accesarea informațiilor pe dispozitivul dumneavoastră

    Cookies, identificatori de dispozitiv sau alte informații pot fi stocate sau accesate pe dispozitiv în scopurile indicate mai sus.

  • Reclame și conținut personalizat, evaluarea reclamelor și a conținutului, informații despre audiențe și dezvoltarea produselor

    Reclamele și conținutul pot fi personalizate pe baza unui profil. Pot fi adăugate date suplimentare pentru a personaliza mai bine reclamele și conținutul. Performanța reclamelor și conținutului poate fi măsurată. Pot fi obținute informații despre utilizatorii care au văzut reclamele și conținutul. Aceste date pot fi utilizate pentru a dezvolta sau îmbunătăți experiența utilizatorilor, sistemele și software-ul.

Dând clic pe ‘Sunt de acord’, permiteți utilizarea cookie-urilor menționate, a identificatorilor de dispozitiv, balizelor web sau altor tehnologii similare. Setările pot fi modificate din browser-ul dispozitivului dumneavoastră.

În anumite scopuri, interesele legitime pot prima asupra consimțământului. Puteți citi mai multe informații în acest sens în Politica privind Confidențialitatea Datelor și Cookie.